CANX-4

Last updated on Sun Dec 14 2025 00:03:49 GMT+0000 (Coordinated Universal Time)

1 40055U 14034C 25347.15910820 .00002147 00000+0 28564-3 0 9994 2 40055 98.3359 210.3803 0011628 247.3747 112.6234 14.80790141616997
UTC large
Height (km)
Speed (km/s)
/
Latitude / Longitude
Inclination (degrees)
Orbital Period (minutes)
Azimuth
Elevation
Range (km)
Doppler Factor

Next 0 passes for location: London (51.5072 / 0.1276)

Sorry there are no passes over London.